Retour au catalogue

STARLINK-37438

ActifCommunicationsVLEO
NORAD 69526·PAYLOAD·🇺🇸 United States

Lancé Jun 12, 2026 depuis Cape Canaveral Space Force Station

Loading…

Prochains Passages (prochaines 24 heures)

TLE

FraisSource: CelesTrak SupGP

Époque: Sep 14, 2026, 22:59 UTC

1 69526C 26133U   26257.95812500  .00037861  00000+0  11186-2 0  2575
2 69526  53.1567 255.4243 0001252  94.3345 350.0110 15.34372329    10

Suivez STARLINK-37438 en temps réel avec AllMySat

Download on the App Store